RH
69 75 70 69 78 93 100 95 99 99 96 99 99 100 90 75 75 66 68 64 74 78 82 86 82 83 68 42 47 50 44 60 71 65 52 51 55 60 62 77 74 90 86 71
83 82 84 76 76 97 94 97 99 100 90 100 97 92 90 82 81 76 80 80 80 81 88 94 87 84 56 48 48 52 54 70 94 74 59 54 65 65 57 58 63 77 86 65
74 75 75 87 80 88 99 98 100 100 100 98 94 96 93 90 79 78 78 78 76 85 94 89 92 89 64 51 50 57 70 94 84 77 59 62 68 63 60 56 89 74 64 52
68 73 72 73 85 79 99 99 97 86 99 96 97 88 83 93 91 82 75 79 79 87 99 100 98 87 84 82 67 76 88 99 96 84 75 73 76 67 62 70 76 94 61 66
84 73 79 76 76 79 98 94 98 92 90 84 97 92 80 78 76 85 93 92 82 87 89 78 90 85 94 93 84 96 95 98 95 98 84 82 86 77 77 73 68 68 70 73
88 84 80 83 79 84 90 87 91 85 87 93 98 87 82 77 68 67 70 82 90 96 88 79 81 80 84 82 83 97 99 99 98 86 80 83 94 76 75 71 67 66 81 62
83 86 83 76 76 88 97 79 89 100 97 95 86 82 76 83 77 76 71 74 82 71 73 74 76 82 89 93 93 82 99 98 95 89 89 94 52 47 54 68 61 60 60 60
93 82 82 72 73 67 97 97 89 97 96 96 96 88 86 78 76 79 75 74 74 75 76 96 94 84 91 88 87 93 84 90 97 96 94 80 65 58 54 62 56 56 69 60
91 79 78 79 77 74 79 99 97 94 99 97 84 86 80 86 95 97 86 96 97 83 97 98 99 91 82 75 81 84 90 92 98 98 96 94 56 45 40 43 65 42 45 62
90 92 79 81 86 80 85 95 96 98 98 96 85 98 94 80 86 98 97 100 100 96 98 97 92 87 69 84 85 97 95 99 96 93 94 95 67 41 43 68 55 40 43 45
91 92 94 94 86 82 80 94 90 97 98 87 93 84 93 89 86 90 98 99 99 99 99 98 96 97 86 80 74 89 87 94 95 95 96 91 45 48 58 52 40 39 39 43
87 91 93 96 86 84 79 97 100 100 99 97 86 80 75 72 74 86 98 92 98 95 99 99 98 97 98 90 97 73 87 80 82 72 70 47 44 43 41 40 40 38 40 42
72 78 93 96 86 89 87 96 88 96 100 99 99 94 87 88 81 74 93 99 94 100 96 99 98 98 87 96 94 70 62 59 64 63 60 39 34 31 37 36 35 37 36 38
72 71 85 95 94 83 88 96 94 99 100 99 98 99 92 92 85 87 80 87 98 94 98 99 98 98 96 95 77 82 67 61 66 69 47 32 30 33 34 34 34 36 36 36
75 73 80 94 95 87 89 87 95 92 99 99 96 92 73 82 94 97 99 91 98 99 99 98 97 98 97 88 66 84 62 63 65 64 51 45 50 32 33 40 40 42 43 43
79 78 80 94 83 92 95 99 88 94 100 99 98 94 94 83 100 100 99 99 99 99 98 98 98 94 84 96 97 74 59 52 49 44 38 40 38 32 36 38 42 43 44 42
86 85 83 90 81 85 90 90 91 96 100 99 97 96 98 89 98 98 98 99 98 98 97 97 97 95 88 96 99 70 68 60 39 37 42 42 40 45 43 45 44 43 45 47
90 88 87 91 90 95 100 97 93 98 96 100 97 98 97 97 98 94 97 96 98 98 96 96 96 96 96 97 80 71 46 52 53 52 49 46 52 48 50 46 44 47 49 50
94 90 89 98 100 99 100 99 100 100 99 97 95 91 94 97 97 97 98 97 96 95 96 96 79 96 97 77 74 68 58 55 62 57 55 54 55 59 57 53 54 52 53 56
92 100 99 97 99 99 99 98 97 98 98 98 97 92 95 94 93 96 93 96 95 96 88 89 96 93 69 65 62 67 70 74 69 72 68 61 59 56 57 60 66 66 66 66
98 98 98 99 98 96 97 96 96 96 96 98 97 95 96 96 95 94 94 95 95 97 85 92 94 92 89 94 90 92 87 78 80 78 78 63 70 84 80 73 65 67 68 70
92 87 88 84 86 95 91 96 96 95 92 96 97 97 95 96 96 95 95 94 91 92 90 96 99 88 88 94 96 95 91 83 81 69 78 74 74 75 80 81 77 74 71 74
66 91 92 93 94 95 94 96 95 99 98 97 96 96 95 96 95 96 94 94 90 78 98 98 91 79 94 95 95 95 93 83 82 87 78 76 75 74 76 78 73 74 77 74
81 79 76 91 92 92 91 93 94 95 89 93 94 95 94 94 95 94 93 89 81 100 100 94 88 83 94 96 95 92 90 91 89 87 77 76 77 77 72 74 73 78 87 81
85 81 90 98 92 95 94 95 95 93 88 89 91 88 79 91 94 92 87 96 100 95 84 87 92 92 95 90 85 93 91 92 93 82 84 80 78 82 83 81 79 80 86 90
90 92 95 92 94 96 96 95 97 94 97 87 82 96 92 100 94 93 89 83 82 76 91 92 96 89 86 84 83 86 86 88 87 84 84 84 86 89 87 82 85 87 90 94
93 98 95 96 97 99 98 97 92 97 93 90 88 60 60 93 99 93 89 90 90 95 97 96 96 93 92 92 86 83 83 86 87 86 88 90 87 90 96 100 88 86 86 90
Wind_Speed
11 10 7 6 7 6 9 5 3 1 12 1 2 2 3 2 3 1 5 1 4 6 6 3 7 7 9 2 5 6 3 4 4 9 3 2 3 7 6 4 5 3 2 7
11 10 10 8 10 10 5 2 2 4 2 4 5 1 3 3 4 5 5 7 5 3 3 6 5 4 3 4 7 7 6 1 2 7 3 1 4 4 4 2 3 8 4 6
16 15 12 13 11 13 11 2 2 2 2 1 2 5 6 6 4 2 4 3 3 3 4 6 3 4 2 2 1 3 6 6 7 10 4 3 4 4 6 8 4 6 16 20
16 18 20 17 16 15 15 3 4 5 4 7 10 4 2 5 6 4 5 3 8 8 6 3 6 8 5 3 4 2 2 5 6 10 6 5 6 5 9 12 11 8 17 14
16 16 18 19 19 16 11 4 3 1 3 3 11 13 10 18 9 7 3 6 7 6 8 12 4 5 4 5 1 6 5 4 5 5 9 13 18 13 16 18 22 20 24 25
19 18 18 15 19 20 10 7 2 2 8 6 6 6 14 5 8 7 11 8 4 7 11 8 7 6 6 6 4 7 6 3 3 12 5 5 10 15 18 10 8 11 15 19
23 22 23 22 20 23 18 12 5 3 6 10 12 10 14 15 15 12 1 6 11 5 6 3 1 2 4 5 9 11 5 5 4 10 4 9 4 2 3 15 10 10 10 8
20 24 23 22 21 24 22 20 9 3 11 6 9 8 6 10 9 14 9 5 3 6 4 3 4 4 4 7 13 15 13 10 6 4 6 6 6 5 6 6 6 5 6 2
22 24 26 26 23 21 24 23 26 6 2 9 8 11 13 10 6 1 5 1 2 2 3 3 6 5 4 4 2 3 7 14 10 3 5 6 4 3 2 3 5 2 3 5
21 23 25 27 24 22 21 21 25 12 5 4 3 5 6 5 6 2 3 4 3 1 5 7 6 6 5 5 6 5 3 2 11 13 10 3 5 4 4 5 6 3 4 4
21 22 24 25 25 23 19 19 24 24 4 8 10 10 6 2 6 7 4 2 1 1 5 4 4 6 6 4 4 6 8 7 4 4 2 7 5 5 7 3 1 5 3 4
20 21 23 24 26 21 16 12 11 30 6 3 16 18 22 19 8 7 7 3 4 3 3 3 2 4 3 4 4 1 5 7 5 8 6 1 6 1 3 5 5 5 6 5
24 24 23 22 22 22 17 15 15 8 2 1 3 6 12 16 15 14 5 1 4 4 2 2 4 5 2 4 6 5 4 3 3 1 5 5 5 3 4 5 5 6 5 5
26 25 24 23 23 22 18 16 14 8 2 3 2 1 2 8 16 17 16 8 5 6 3 4 2 3 5 3 2 4 3 6 5 4 2 2 5 6 6 5 5 5 5 4
29 27 26 24 21 20 17 18 20 20 5 2 1 2 3 3 9 10 10 9 6 3 3 3 4 2 1 0 1 4 5 6 5 7 7 5 5 7 7 8 7 7 8 6
32 29 27 25 21 16 5 2 14 24 25 2 2 1 1 3 2 6 5 5 2 2 2 2 2 1 2 4 3 4 5 3 4 3 1 1 3 4 5 6 7 6 6 6
32 29 27 25 21 17 6 4 2 18 26 3 1 2 0 5 3 1 2 2 1 1 2 2 2 2 2 1 4 3 5 6 3 2 6 3 2 2 4 8 8 9 7 6
32 28 25 23 20 13 10 16 11 13 5 2 3 1 1 4 1 2 1 2 1 1 2 2 2 1 1 5 5 3 2 5 4 4 3 4 6 7 6 9 6 5 4 3
32 27 23 9 6 5 8 14 20 15 5 3 2 5 3 2 2 2 1 1 2 1 2 1 3 2 5 5 6 5 6 6 7 5 6 7 7 6 5 6 5 4 2 1
29 18 5 3 2 25 21 5 2 2 1 2 3 1 3 3 2 2 3 2 2 2 1 2 3 3 4 4 3 3 6 7 8 6 4 5 4 5 3 4 2 1 2 4
8 2 3 11 11 1 3 2 1 0 1 1 2 3 4 2 3 2 0 2 2 2 2 3 2 3 4 4 3 3 4 6 3 5 5 6 6 5 4 2 2 3 6 7
12 21 13 4 1 3 4 1 1 3 3 2 3 2 2 2 2 2 2 2 2 2 1 3 3 3 2 1 1 3 4 7 7 8 8 8 6 5 4 4 6 8 11 13
14 7 4 2 3 2 5 6 3 1 2 2 2 3 2 2 2 2 2 2 2 2 2 3 4 2 1 2 0 3 4 7 7 4 3 3 2 3 6 11 13 13 16 18
4 3 4 2 0 1 1 1 1 2 1 4 4 3 2 2 2 1 3 2 2 2 1 5 2 3 3 3 1 3 3 2 2 3 4 5 7 11 13 15 17 17 17 19
4 4 3 1 1 2 2 2 1 3 1 2 3 3 2 2 3 2 4 2 3 5 4 2 2 3 1 3 2 2 3 3 4 5 8 11 13 14 18 19 19 18 20 20
4 5 3 1 3 3 2 3 3 4 2 1 3 3 4 2 3 3 4 5 5 3 3 2 1 3 3 2 3 4 7 9 12 15 16 16 16 16 18 22 22 21 21 22
4 3 3 3 3 1 1 1 3 3 2 1 3 4 3 1 3 1 3 4 2 2 1 1 1 2 4 4 7 10 12 13 15 19 20 20 22 20 18 12 22 21 22 24
Wind_Direction
252 258 247 279 258 232 194 158 237 135 157 191 194 213 191 249 220 309 234 231 236 217 181 232 256 223 211 125 144 178 207 167 231 221 231 252 212 204 166 162 226 225 218 273
257 256 259 240 226 214 179 186 125 176 145 220 232 212 233 237 205 216 201 218 192 199 195 246 231 206 241 188 181 182 185 176 340 317 4 355 218 207 183 128 101 210 181 255
259 259 258 248 246 239 212 139 179 152 200 304 201 199 215 224 217 228 229 190 148 163 215 192 238 210 288 322 161 88 87 176 192 236 210 143 213 203 207 206 207 247 230 257
266 265 253 243 237 241 221 203 220 177 182 220 233 233 248 180 187 233 198 204 221 189 234 202 224 241 232 202 142 110 124 245 220 243 259 256 225 192 197 216 224 229 261 242
258 263 259 251 234 230 243 222 164 226 176 179 202 211 229 246 248 154 234 245 237 216 236 241 237 205 186 219 194 157 181 240 188 268 240 248 261 243 232 234 243 246 253 272
251 254 256 254 239 226 226 242 226 220 185 168 166 208 220 223 215 238 225 201 190 219 234 226 229 232 199 192 178 194 190 206 197 264 202 245 275 246 220 224 223 221 241 251
251 247 253 253 244 235 230 244 270 278 240 195 208 191 203 212 219 222 228 187 210 192 134 125 144 208 238 244 236 203 200 215 242 267 150 239 270 300 195 214 238 219 252 258
263 247 247 254 252 243 243 235 227 256 249 218 219 205 194 220 232 235 230 209 188 142 94 87 304 278 292 243 230 233 213 222 240 233 213 303 286 216 187 179 257 217 220 176
258 257 249 254 255 252 245 253 226 225 262 225 234 219 211 215 199 305 225 71 345 124 137 169 209 212 241 255 247 342 222 220 228 211 234 215 233 212 146 109 272 153 172 163
259 262 256 246 257 259 252 247 250 225 219 216 174 213 217 176 165 187 126 171 193 150 178 202 207 222 197 231 217 182 156 187 230 246 260 259 240 159 135 162 267 160 146 145
259 259 257 250 244 260 261 259 249 223 232 212 187 188 196 182 181 194 148 133 183 176 208 203 188 204 202 201 200 183 179 174 199 211 262 273 145 90 180 191 146 146 139 147
257 262 257 250 241 256 263 255 250 229 219 293 212 218 213 214 190 186 177 166 150 173 211 217 210 221 148 176 236 105 221 188 190 186 209 252 214 186 170 161 157 185 152 169
259 260 257 251 241 248 245 245 254 297 309 267 211 224 227 217 213 194 143 195 148 163 197 194 208 254 147 177 240 188 241 160 216 130 218 216 210 223 181 188 177 163 164 167
254 259 258 248 246 245 243 225 225 186 283 264 213 50 196 237 220 211 206 143 150 112 158 200 211 208 184 214 244 204 191 133 184 255 279 7 268 226 189 176 149 135 130 146
253 254 252 248 240 243 247 253 235 221 202 279 152 199 226 223 204 194 197 170 143 134 168 203 216 142 171 31 88 245 193 177 180 233 206 199 215 202 165 166 177 167 146 148
248 247 247 244 236 233 222 291 239 231 213 195 206 17 59 125 135 190 166 147 94 137 172 198 181 69 191 188 221 254 212 211 197 243 153 157 41 129 134 161 159 152 159 162
239 238 236 237 234 226 193 209 228 218 188 164 182 183 198 150 143 139 107 81 100 146 152 189 167 175 190 240 239 239 217 222 224 148 120 77 54 184 127 118 124 139 123 113
228 227 227 232 234 226 206 225 254 179 136 182 175 166 82 194 158 104 61 109 137 186 142 130 150 124 214 243 238 248 99 113 92 77 49 125 118 98 86 93 102 100 94 75
210 208 213 209 181 149 124 151 170 185 200 158 120 155 193 113 78 89 101 158 163 102 168 176 147 181 223 220 208 206 183 178 166 117 98 100 104 105 95 103 83 106 99 21
184 151 118 147 68 128 123 82 49 356 342 81 131 148 135 131 168 145 150 189 159 181 185 121 218 256 266 247 265 287 184 159 140 111 124 125 127 140 121 111 126 151 285 302
114 99 73 105 135 48 39 102 178 203 301 165 121 155 132 175 144 113 83 138 88 141 249 170 249 264 255 331 292 293 147 132 108 119 110 115 138 150 148 170 210 273 286 278
120 111 97 120 74 50 90 104 234 214 210 127 132 119 88 107 107 121 145 128 112 221 109 75 269 258 318 58 6 37 81 110 106 114 124 128 138 166 191 241 258 270 282 282
79 63 76 45 351 87 177 182 268 212 164 177 162 109 106 107 75 81 120 145 139 82 72 234 230 275 291 189 124 80 70 99 114 113 133 156 225 259 260 272 282 287 284 289
69 88 73 51 25 277 186 159 87 50 116 135 110 81 82 89 78 73 117 66 102 71 324 236 250 261 265 210 189 125 186 178 185 224 233 254 268 276 281 278 286 286 277 284
76 53 90 71 245 234 245 240 169 28 53 107 104 79 82 57 99 24 98 77 235 208 229 236 269 304 307 183 188 211 233 234 240 243 257 273 281 275 280 282 285 283 278 274
72 50 70 320 46 22 36 31 47 7 10 62 46 95 63 40 122 91 200 130 219 250 225 256 325 12 16 358 295 278 270 267 270 277 274 276 273 267 273 288 286 281 271 266
48 26 31 83 79 105 348 357 9 343 59 104 99 70 203 97 48 351 198 195 234 256 299 306 263 267 277 282 294 290 285 280 277 278 280 276 285 284 272 267 276 271 268 263